| time (UTC) | temp F | wind direction | speed MPH | gust MPH | rain 1hr in | rain 24hr in | rain mn in | humidity % | barometer mb |
| 20260506195155 | 65 | 356 | 2.0 | 4.0 | 0.00 | 0.03 | 0.03 | 67 | 1014.5 |
| 20260506194653 | 64 | 51 | 3.0 | 5.0 | 0.00 | 0.03 | 0.03 | 69 | 1014.5 |
| 20260506194149 | 65 | 29 | 2.0 | 5.0 | 0.00 | 0.03 | 0.03 | 69 | 1014.7 |
| 20260506193647 | 64 | 334 | 2.0 | 4.0 | 0.00 | 0.03 | 0.03 | 69 | 1014.7 |
| 20260506193144 | 63 | 313 | 3.0 | 7.0 | 0.00 | 0.03 | 0.03 | 70 | 1014.9 |
| 20260506192640 | 62 | 353 | 3.0 | 8.0 | 0.00 | 0.03 | 0.03 | 70 | 1014.9 |
| 20260506192137 | 63 | 39 | 4.0 | 7.0 | 0.00 | 0.03 | 0.03 | 71 | 1014.7 |
| 20260506191634 | 63 | 337 | 5.0 | 8.0 | 0.00 | 0.03 | 0.03 | 70 | 1015.0 |
| 20260506191130 | 62 | 313 | 1.0 | 5.0 | 0.00 | 0.03 | 0.03 | 70 | 1014.8 |
| 20260506190627 | 62 | 11 | 0.0 | 3.0 | 0.00 | 0.03 | 0.03 | 70 | 1014.9 |
| 20260506190124 | 62 | 61 | 1.0 | 9.0 | 0.00 | 0.03 | 0.03 | 72 | 1014.5 |
| 20260506185621 | 61 | 317 | 6.0 | 11.0 | 0.00 | 0.03 | 0.03 | 73 | 1014.5 |
| 20260506185117 | 62 | 341 | 10.0 | 12.0 | 0.00 | 0.03 | 0.03 | 72 | 1014.2 |
| 20260506184615 | 61 | 337 | 7.0 | 13.0 | 0.00 | 0.03 | 0.03 | 74 | 1014.5 |
| 20260506184112 | 60 | 355 | 5.0 | 11.0 | 0.00 | 0.03 | 0.03 | 73 | 1014.6 |
| 20260506183609 | 60 | 338 | 4.0 | 9.0 | 0.00 | 0.03 | 0.03 | 74 | 1014.8 |
| 20260506183104 | 60 | 359 | 9.0 | 15.0 | 0.00 | 0.03 | 0.03 | 73 | 1014.5 |
| 20260506182602 | 60 | 0 | 11.0 | 14.0 | 0.00 | 0.03 | 0.03 | 73 | 1014.7 |
| 20260506182059 | 59 | 52 | 2.0 | 10.0 | 0.00 | 0.03 | 0.03 | 76 | 1014.8 |
| 20260506181556 | 59 | 11 | 11.0 | 11.0 | 0.00 | 0.03 | 0.03 | 74 | 1014.7 |
| 20260506181053 | 58 | 12 | 11.0 | 16.0 | 0.00 | 0.03 | 0.03 | 75 | 1014.6 |
| 20260506180544 | 57 | 43 | 4.0 | 15.0 | 0.00 | 0.03 | 0.03 | 77 | 1015.0 |
| 20260506180041 | 58 | 45 | 8.0 | 10.0 | 0.00 | 0.03 | 0.03 | 76 | 1015.0 |
| 20260506175537 | 58 | 50 | 9.0 | 13.0 | 0.00 | 0.03 | 0.03 | 76 | 1014.8 |
| 20260506175034 | 57 | 18 | 8.0 | 14.0 | 0.00 | 0.03 | 0.03 | 76 | 1015.0 |
| 20260506174533 | 58 | 337 | 3.0 | 6.0 | 0.00 | 0.03 | 0.03 | 77 | 1015.2 |
| 20260506174028 | 57 | 26 | 4.0 | 11.0 | 0.00 | 0.03 | 0.03 | 78 | 1015.1 |
| 20260506173526 | 57 | 39 | 3.0 | 13.0 | 0.00 | 0.03 | 0.03 | 78 | 1014.9 |
| 20260506173022 | 57 | 5 | 14.0 | 15.0 | 0.00 | 0.03 | 0.03 | 78 | 1015.1 |
| 20260506172519 | 56 | 40 | 6.0 | 18.0 | 0.00 | 0.03 | 0.03 | 77 | 1014.7 |
| 20260506172010 | 56 | 52 | 5.0 | 16.0 | 0.00 | 0.03 | 0.03 | 80 | 1014.9 |
| 20260506171507 | 55 | 31 | 7.0 | 19.0 | 0.00 | 0.03 | 0.03 | 79 | 1015.2 |
| 20260506171004 | 55 | 32 | 9.0 | 15.0 | 0.00 | 0.03 | 0.03 | 81 | 1015.0 |
| 20260506170501 | 54 | 358 | 7.0 | 16.0 | 0.00 | 0.03 | 0.03 | 81 | 1015.0 |
| 20260506165954 | 54 | 5 | 11.0 | 15.0 | 0.00 | 0.03 | 0.03 | 81 | 1015.0 |
| 20260506165453 | 54 | 10 | 11.0 | 14.0 | 0.00 | 0.03 | 0.03 | 82 | 1015.2 |
| 20260506164948 | 54 | 16 | 9.0 | 15.0 | 0.00 | 0.03 | 0.03 | 82 | 1015.1 |
| 20260506164445 | 54 | 21 | 6.0 | 13.0 | 0.00 | 0.03 | 0.03 | 83 | 1015.4 |
| 20260506163943 | 53 | 0 | 9.0 | 16.0 | 0.00 | 0.03 | 0.03 | 83 | 1014.8 |
| 20260506163438 | 53 | 13 | 12.0 | 14.0 | 0.00 | 0.03 | 0.03 | 83 | 1014.8 |
| 20260506162933 | 53 | 37 | 9.0 | 12.0 | 0.00 | 0.03 | 0.03 | 84 | 1015.0 |
| 20260506162431 | 53 | 11 | 8.0 | 15.0 | 0.00 | 0.03 | 0.03 | 85 | 1015.1 |
| 20260506161928 | 53 | 14 | 8.0 | 18.0 | 0.00 | 0.03 | 0.03 | 85 | 1015.0 |
| 20260506161425 | 53 | 6 | 11.0 | 14.0 | 0.00 | 0.03 | 0.03 | 86 | 1014.9 |
| 20260506160917 | 52 | 20 | 6.0 | 16.0 | 0.00 | 0.03 | 0.03 | 86 | 1014.8 |
| 20260506160414 | 52 | 25 | 6.0 | 15.0 | 0.00 | 0.03 | 0.03 | 86 | 1014.9 |
| 20260506155912 | 52 | 1 | 9.0 | 18.0 | 0.00 | 0.03 | 0.03 | 87 | 1014.6 |
| 20260506155408 | 52 | 12 | 12.0 | 20.0 | 0.00 | 0.03 | 0.03 | 86 | 1014.9 |
| 20260506153525 | 51 | 10 | 11.0 | 16.0 | 0.00 | 0.03 | 0.03 | 89 | 1015.0 |
| 20260506153022 | 51 | 14 | 8.0 | 15.0 | 0.00 | 0.03 | 0.03 | 90 | 1015.0 |
| 20260506152519 | 51 | 13 | 8.0 | 18.0 | 0.00 | 0.03 | 0.03 | 90 | 1015.0 |
| 20260506152017 | 51 | 18 | 5.0 | 14.0 | 0.00 | 0.03 | 0.03 | 93 | 1014.8 |
| 20260506151514 | 50 | 13 | 9.0 | 16.0 | 0.05 | 0.03 | 0.03 | 92 | 1015.4 |
| 20260506151012 | 50 | 13 | 4.0 | 11.0 | 0.07 | 0.03 | 0.03 | 93 | 1015.9 |
| 20260506150508 | 50 | 15 | 8.0 | 11.0 | 0.02 | 0.02 | 0.02 | 93 | 1016.3 |
| 20260506150005 | 50 | 329 | 5.0 | 6.0 | 0.02 | 0.02 | 0.02 | 93 | 1016.9 |
| 20260506145501 | 50 | 314 | 3.0 | 4.0 | 0.00 | 0.01 | 0.01 | 93 | 1017.2 |
| 20260506144959 | 50 | 177 | 0.0 | 6.0 | 0.02 | 0.01 | 0.01 | 93 | 1017.2 |
| 20260506144455 | 50 | 322 | 6.0 | 7.0 | 0.02 | 0.01 | 0.01 | 92 | 1017.0 |
| 20260506143954 | 50 | 12 | 3.0 | 7.0 | 0.00 | 0.01 | 0.01 | 92 | 1016.6 |
| 20260506143450 | 50 | 26 | 4.0 | 10.0 | 0.02 | 0.01 | 0.01 | 93 | 1015.7 |
| 20260506142949 | 50 | 0 | 11.0 | 14.0 | 0.02 | 0.01 | 0.01 | 93 | 1014.9 |
| 20260506142446 | 50 | 20 | 10.0 | 13.0 | 0.00 | 0.00 | 0.00 | 93 | 1014.5 |
| 20260506141944 | 50 | 10 | 5.0 | 11.0 | 0.00 | 0.00 | 0.00 | 92 | 1015.2 |
| 20260506141442 | 50 | 6 | 6.0 | 11.0 | 0.00 | 0.00 | 0.00 | 93 | 1015.2 |
| 20260506140940 | 50 | 15 | 5.0 | 11.0 | 0.00 | 0.00 | 0.00 | 93 | 1014.9 |
| 20260506140437 | 50 | 18 | 11.0 | 15.0 | 0.02 | 0.00 | 0.00 | 93 | 1015.0 |
| 20260506135933 | 50 | 0 | 5.0 | 9.0 | 0.02 | 0.00 | 0.00 | 94 | 1015.0 |
| 20260506135431 | 50 | 353 | 8.0 | 10.0 | 0.00 | 0.00 | 0.00 | 92 | 1015.4 |
| 20260506134927 | 50 | 14 | 8.0 | 13.0 | 0.00 | 0.00 | 0.00 | 91 | 1015.7 |
| 20260506134423 | 50 | 7 | 6.0 | 11.0 | 0.00 | 0.00 | 0.00 | 90 | 1015.8 |
| 20260506133920 | 50 | 7 | 4.0 | 10.0 | 0.00 | 0.00 | 0.00 | 91 | 1015.5 |
| 20260506133417 | 50 | 356 | 5.0 | 11.0 | 0.00 | 0.00 | 0.00 | 91 | 1015.5 |
| 20260506132914 | 50 | 18 | 5.0 | 12.0 | 0.00 | 0.00 | 0.00 | 91 | 1015.0 |
| 20260506132411 | 50 | 4 | 9.0 | 10.0 | 0.00 | 0.00 | 0.00 | 91 | 1014.5 |
| 20260506131909 | 50 | 0 | 6.0 | 16.0 | 0.00 | 0.00 | 0.00 | 92 | 1014.5 |
| 20260506131404 | 50 | 11 | 8.0 | 14.0 | 0.00 | 0.00 | 0.00 | 91 | 1014.0 |
| 20260506130902 | 50 | 5 | 11.0 | 16.0 | 0.00 | 0.00 | 0.00 | 91 | 1014.1 |
| 20260506130358 | 50 | 12 | 7.0 | 11.0 | 0.00 | 0.00 | 0.00 | 92 | 1014.4 |
| 20260506125856 | 50 | 355 | 5.0 | 11.0 | 0.00 | 0.00 | 0.00 | 92 | 1014.6 |
| 20260506125355 | 50 | 353 | 6.0 | 13.0 | 0.00 | 0.00 | 0.00 | 92 | 1014.2 |
| 20260506124853 | 50 | 356 | 7.0 | 17.0 | 0.00 | 0.00 | 0.00 | 92 | 1013.9 |
| 20260506124349 | 50 | 24 | 6.0 | 17.0 | 0.00 | 0.00 | 0.00 | 92 | 1013.8 |
| 20260506123847 | 50 | 3 | 12.0 | 13.0 | 0.00 | 0.00 | 0.00 | 92 | 1013.5 |
| 20260506123345 | 50 | 5 | 14.0 | 19.0 | 0.00 | 0.00 | 0.00 | 92 | 1013.6 |
| 20260506122842 | 50 | 6 | 10.0 | 12.0 | 0.00 | 0.00 | 0.00 | 93 | 1013.8 |
| 20260506122339 | 50 | 25 | 11.0 | 16.0 | 0.00 | 0.00 | 0.00 | 93 | 1013.5 |
| 20260506121837 | 50 | 14 | 11.0 | 16.0 | 0.00 | 0.00 | 0.00 | 93 | 1013.8 |
| 20260506121334 | 50 | 5 | 15.0 | 15.0 | 0.00 | 0.00 | 0.00 | 93 | 1013.9 |
| 20260506120831 | 50 | 2 | 10.0 | 15.0 | 0.00 | 0.00 | 0.00 | 93 | 1013.8 |
| 20260506120329 | 50 | 358 | 9.0 | 18.0 | 0.00 | 0.00 | 0.00 | 94 | 1013.5 |
| 20260506115826 | 49 | 348 | 17.0 | 17.0 | 0.00 | 0.00 | 0.00 | 94 | 1013.6 |
| 20260506115324 | 49 | 6 | 9.0 | 18.0 | 0.00 | 0.00 | 0.00 | 94 | 1013.8 |
| 20260506114821 | 50 | 6 | 15.0 | 17.0 | 0.00 | 0.00 | 0.00 | 93 | 1013.6 |
| 20260506114319 | 50 | 352 | 12.0 | 19.0 | 0.00 | 0.00 | 0.00 | 93 | 1013.8 |
| 20260506113818 | 50 | 349 | 11.0 | 18.0 | 0.00 | 0.00 | 0.00 | 92 | 1013.3 |
| 20260506113315 | 50 | 352 | 13.0 | 17.0 | 0.00 | 0.00 | 0.00 | 91 | 1013.3 |
| 20260506112811 | 50 | 353 | 7.0 | 19.0 | 0.00 | 0.00 | 0.00 | 91 | 1013.3 |
| 20260506112308 | 50 | 352 | 15.0 | 18.0 | 0.00 | 0.00 | 0.00 | 90 | 1013.4 |
| 20260506111806 | 51 | 339 | 13.0 | 14.0 | 0.00 | 0.00 | 0.00 | 89 | 1013.0 |
| 20260506111304 | 51 | 359 | 7.0 | 17.0 | 0.00 | 0.00 | 0.00 | 88 | 1012.9 |
| 20260506110801 | 51 | 0 | 4.0 | 20.0 | 0.00 | 0.00 | 0.00 | 87 | 1012.8 |
| 20260506110258 | 51 | 351 | 7.0 | 21.0 | 0.00 | 0.00 | 0.00 | 86 | 1012.8 |
| 20260506105754 | 52 | 357 | 11.0 | 17.0 | 0.00 | 0.00 | 0.00 | 86 | 1012.8 |
| 20260506105251 | 52 | 345 | 7.0 | 19.0 | 0.00 | 0.00 | 0.00 | 85 | 1012.4 |
| 20260506104749 | 52 | 346 | 10.0 | 19.0 | 0.00 | 0.00 | 0.00 | 84 | 1012.4 |
| 20260506104247 | 52 | 355 | 11.0 | 18.0 | 0.00 | 0.00 | 0.00 | 84 | 1012.5 |
| 20260506103744 | 52 | 357 | 10.0 | 20.0 | 0.00 | 0.00 | 0.00 | 84 | 1012.6 |
| 20260506103241 | 52 | 335 | 10.0 | 22.0 | 0.00 | 0.00 | 0.00 | 84 | 1012.3 |
| 20260506102738 | 52 | 355 | 11.0 | 19.0 | 0.00 | 0.00 | 0.00 | 85 | 1012.3 |
| 20260506102236 | 53 | 330 | 9.0 | 18.0 | 0.00 | 0.00 | 0.00 | 84 | 1012.5 |
| 20260506101733 | 53 | 359 | 22.0 | 22.0 | 0.00 | 0.00 | 0.00 | 84 | 1012.2 |
| 20260506101230 | 53 | 344 | 10.0 | 23.0 | 0.00 | 0.00 | 0.00 | 84 | 1012.1 |
| 20260506100728 | 54 | 354 | 13.0 | 19.0 | 0.00 | 0.00 | 0.00 | 83 | 1012.2 |
| 20260506100226 | 54 | 337 | 12.0 | 19.0 | 0.00 | 0.00 | 0.00 | 83 | 1011.8 |
| 20260506095724 | 54 | 10 | 11.0 | 14.0 | 0.00 | 0.00 | 0.00 | 83 | 1011.8 |
| 20260506095220 | 54 | 332 | 13.0 | 17.0 | 0.00 | 0.00 | 0.00 | 82 | 1011.7 |
| 20260506094717 | 54 | 348 | 8.0 | 12.0 | 0.00 | 0.00 | 0.00 | 83 | 1011.5 |
| 20260506094215 | 55 | 2 | 4.0 | 11.0 | 0.00 | 0.00 | 0.00 | 83 | 1011.4 |
| 20260506093714 | 55 | 13 | 7.0 | 14.0 | 0.00 | 0.00 | 0.00 | 82 | 1011.3 |
| 20260506093210 | 55 | 359 | 14.0 | 14.0 | 0.00 | 0.00 | 0.00 | 82 | 1011.4 |
| 20260506092708 | 55 | 7 | 9.0 | 13.0 | 0.00 | 0.00 | 0.00 | 82 | 1011.0 |
| 20260506092205 | 55 | 0 | 8.0 | 13.0 | 0.00 | 0.00 | 0.00 | 82 | 1011.4 |
| 20260506091703 | 55 | 352 | 4.0 | 10.0 | 0.00 | 0.00 | 0.00 | 82 | 1011.1 |
| 20260506091200 | 55 | 343 | 7.0 | 12.0 | 0.00 | 0.00 | 0.00 | 82 | 1011.2 |
| 20260506090658 | 55 | 3 | 10.0 | 12.0 | 0.00 | 0.00 | 0.00 | 83 | 1011.0 |
| 20260506090154 | 55 | 354 | 6.0 | 13.0 | 0.00 | 0.00 | 0.00 | 83 | 1010.9 |
| 20260506085651 | 55 | 1 | 7.0 | 12.0 | 0.00 | 0.00 | 0.00 | 83 | 1011.2 |
| 20260506085147 | 56 | 354 | 5.0 | 11.0 | 0.00 | 0.00 | 0.00 | 82 | 1011.0 |
| 20260506084644 | 56 | 0 | 6.0 | 8.0 | 0.00 | 0.00 | 0.00 | 83 | 1011.3 |
| 20260506084141 | 55 | 2 | 5.0 | 11.0 | 0.00 | 0.00 | 0.00 | 82 | 1010.8 |
| 20260506083638 | 55 | 4 | 5.0 | 10.0 | 0.00 | 0.00 | 0.00 | 82 | 1010.7 |
| 20260506083136 | 56 | 4 | 3.0 | 9.0 | 0.00 | 0.00 | 0.00 | 82 | 1010.8 |
| 20260506082632 | 56 | 12 | 6.0 | 12.0 | 0.00 | 0.00 | 0.00 | 82 | 1010.7 |
| 20260506082128 | 56 | 0 | 12.0 | 14.0 | 0.00 | 0.00 | 0.00 | 82 | 1010.7 |
| 20260506081626 | 56 | 13 | 10.0 | 13.0 | 0.00 | 0.00 | 0.00 | 82 | 1010.7 |
| 20260506081124 | 56 | 349 | 7.0 | 12.0 | 0.00 | 0.00 | 0.00 | 82 | 1010.9 |
| 20260506080621 | 56 | 18 | 7.0 | 11.0 | 0.00 | 0.00 | 0.00 | 82 | 1011.1 |
| 20260506080118 | 56 | 0 | 8.0 | 11.0 | 0.00 | 0.00 | 0.00 | 82 | 1010.9 |
| 20260506073101 | 56 | 357 | 10.0 | 14.0 | 0.00 | 0.00 | 0.00 | 82 | 1011.1 |
| 20260506072558 | 56 | 10 | 4.0 | 10.0 | 0.00 | 0.00 | 0.00 | 83 | 1011.2 |
| 20260506072056 | 56 | 11 | 7.0 | 13.0 | 0.00 | 0.00 | 0.00 | 83 | 1010.8 |
| 20260506071554 | 56 | 20 | 5.0 | 10.0 | 0.00 | 0.00 | 0.00 | 83 | 1010.8 |
| 20260506071051 | 56 | 10 | 8.0 | 10.0 | 0.00 | 0.00 | 0.00 | 83 | 1010.9 |
| 20260506070548 | 56 | 21 | 7.0 | 10.0 | 0.00 | 0.00 | 0.00 | 83 | 1010.7 |
| 20260506062022 | 57 | 48 | 14.0 | 15.0 | 0.00 | 0.00 | 0.00 | 84 | 1010.4 |
| 20260506061518 | 57 | 49 | 9.0 | 9.0 | 0.00 | 0.00 | 0.00 | 84 | 1010.4 |
| 20260506061016 | 57 | 13 | 4.0 | 11.0 | 0.00 | 0.00 | 0.00 | 85 | 1010.3 |
| 20260506060514 | 58 | 34 | 4.0 | 9.0 | 0.00 | 0.00 | 0.00 | 85 | 1010.5 |
| 20260506050943 | 59 | 11 | 7.0 | 13.0 | 0.00 | 0.00 | 0.00 | 85 | 1010.5 |
| 20260506050441 | 59 | 4 | 10.0 | 12.0 | 0.00 | 0.00 | 0.00 | 85 | 1010.4 |
| 20260506044931 | 59 | 358 | 6.0 | 14.0 | 0.00 | 0.00 | 0.00 | 84 | 1010.4 |
| 20260506044429 | 59 | 347 | 6.0 | 11.0 | 0.00 | 0.00 | 0.00 | 84 | 1010.5 |
| 20260506043926 | 59 | 358 | 5.0 | 15.0 | 0.00 | 0.00 | 0.00 | 84 | 1010.4 |
| 20260506043423 | 59 | 3 | 7.0 | 13.0 | 0.00 | 0.00 | 0.00 | 84 | 1010.8 |
| 20260506042921 | 59 | 1 | 11.0 | 13.0 | 0.00 | 0.00 | 0.00 | 84 | 1010.4 |
| 20260506042420 | 59 | 353 | 7.0 | 14.0 | 0.00 | 0.00 | 0.00 | 84 | 1010.5 |
| 20260506041918 | 59 | 0 | 12.0 | 15.0 | 0.00 | 0.00 | 0.00 | 83 | 1010.5 |
| 20260506041415 | 59 | 4 | 9.0 | 12.0 | 0.00 | 0.00 | 0.00 | 83 | 1010.7 |
| 20260506040912 | 59 | 8 | 13.0 | 14.0 | 0.00 | 0.00 | 0.00 | 83 | 1010.5 |
| 20260506040410 | 59 | 0 | 9.0 | 15.0 | 0.00 | 0.00 | 0.00 | 82 | 1010.4 |
| 20260506035905 | 59 | 0 | 8.0 | 14.0 | 0.00 | 0.00 | 0.00 | 82 | 1010.5 |
| 20260506035403 | 59 | 340 | 4.0 | 14.0 | 0.00 | 0.00 | 0.00 | 82 | 1010.4 |
| 20260506034900 | 60 | 5 | 9.0 | 15.0 | 0.00 | 0.00 | 0.00 | 82 | 1010.5 |
| 20260506034358 | 60 | 335 | 12.0 | 16.0 | 0.00 | 0.00 | 0.00 | 81 | 1010.4 |
| 20260506033854 | 60 | 356 | 8.0 | 16.0 | 0.00 | 0.00 | 0.00 | 81 | 1010.4 |
| 20260506033351 | 60 | 0 | 11.0 | 19.0 | 0.00 | 0.00 | 0.00 | 81 | 1010.1 |
| 20260506032848 | 60 | 336 | 13.0 | 19.0 | 0.00 | 0.00 | 0.00 | 81 | 1010.0 |
| 20260506032344 | 61 | 338 | 9.0 | 13.0 | 0.00 | 0.00 | 0.00 | 81 | 1009.9 |
| 20260506031841 | 61 | 344 | 6.0 | 15.0 | 0.00 | 0.00 | 0.00 | 81 | 1009.9 |
| 20260506031339 | 61 | 355 | 7.0 | 17.0 | 0.00 | 0.00 | 0.00 | 81 | 1009.6 |
| 20260506030836 | 61 | 0 | 7.0 | 13.0 | 0.00 | 0.00 | 0.00 | 81 | 1009.4 |
| 20260506030334 | 61 | 359 | 11.0 | 14.0 | 0.00 | 0.00 | 0.00 | 81 | 1009.2 |
| 20260506025831 | 62 | 349 | 6.0 | 14.0 | 0.00 | 0.00 | 0.00 | 80 | 1009.3 |
| 20260506025327 | 62 | 5 | 14.0 | 17.0 | 0.00 | 0.00 | 0.00 | 81 | 1009.2 |
| 20260506024824 | 62 | 0 | 14.0 | 16.0 | 0.00 | 0.00 | 0.00 | 81 | 1009.1 |
| 20260506024321 | 62 | 2 | 10.0 | 11.0 | 0.00 | 0.00 | 0.00 | 81 | 1009.1 |
| 20260506023817 | 62 | 6 | 8.0 | 12.0 | 0.00 | 0.00 | 0.00 | 81 | 1009.2 |
| 20260506023314 | 62 | 4 | 8.0 | 15.0 | 0.00 | 0.00 | 0.00 | 80 | 1009.0 |
| 20260506022811 | 63 | 358 | 11.0 | 17.0 | 0.00 | 0.00 | 0.00 | 79 | 1008.8 |
| 20260506022309 | 63 | 17 | 4.0 | 17.0 | 0.00 | 0.00 | 0.00 | 79 | 1008.8 |
| 20260506021807 | 63 | 7 | 9.0 | 15.0 | 0.00 | 0.00 | 0.00 | 79 | 1008.8 |
| 20260506021303 | 64 | 2 | 9.0 | 11.0 | 0.00 | 0.00 | 0.00 | 79 | 1008.7 |
| 20260506020800 | 64 | 355 | 4.0 | 15.0 | 0.00 | 0.00 | 0.00 | 79 | 1008.8 |
| 20260506020258 | 64 | 8 | 5.0 | 12.0 | 0.00 | 0.00 | 0.00 | 79 | 1008.6 |
| 20260506015755 | 64 | 2 | 8.0 | 14.0 | 0.00 | 0.00 | 0.00 | 78 | 1008.2 |
| 20260506015253 | 64 | 4 | 12.0 | 14.0 | 0.00 | 0.00 | 0.00 | 78 | 1008.2 |
| 20260506014749 | 65 | 0 | 4.0 | 13.0 | 0.00 | 0.00 | 0.00 | 78 | 1008.1 |
| 20260506014246 | 65 | 3 | 8.0 | 14.0 | 0.00 | 0.00 | 0.00 | 78 | 1007.7 |
| 20260506013743 | 65 | 351 | 6.0 | 14.0 | 0.00 | 0.00 | 0.00 | 77 | 1007.4 |
| 20260506013240 | 65 | 2 | 12.0 | 20.0 | 0.00 | 0.00 | 0.00 | 77 | 1007.2 |
| 20260506012736 | 65 | 6 | 10.0 | 17.0 | 0.00 | 0.00 | 0.00 | 76 | 1007.6 |
| 20260506012233 | 65 | 6 | 9.0 | 13.0 | 0.00 | 0.00 | 0.00 | 77 | 1007.4 |
| 20260506011731 | 65 | 4 | 11.0 | 11.0 | 0.00 | 0.00 | 0.00 | 77 | 1007.3 |
| 20260506011227 | 66 | 353 | 8.0 | 12.0 | 0.00 | 0.00 | 0.00 | 77 | 1007.1 |
| 20260506010725 | 66 | 2 | 9.0 | 14.0 | 0.00 | 0.00 | 0.00 | 77 | 1006.9 |
| 20260506010222 | 66 | 25 | 5.0 | 14.0 | 0.00 | 0.00 | 0.00 | 77 | 1006.4 |
| 20260506005720 | 66 | 5 | 9.0 | 13.0 | 0.00 | 0.00 | 0.00 | 76 | 1006.5 |
| 20260506005216 | 67 | 357 | 9.0 | 16.0 | 0.00 | 0.00 | 0.00 | 75 | 1006.4 |
| 20260506004712 | 67 | 332 | 12.0 | 12.0 | 0.00 | 0.00 | 0.00 | 75 | 1006.2 |
| 20260506004210 | 67 | 0 | 11.0 | 18.0 | 0.00 | 0.00 | 0.00 | 75 | 1006.2 |
| 20260506003706 | 67 | 350 | 14.0 | 18.0 | 0.00 | 0.00 | 0.00 | 75 | 1006.1 |
| 20260506003202 | 68 | 359 | 15.0 | 22.0 | 0.00 | 0.00 | 0.00 | 74 | 1006.3 |
| 20260506002658 | 68 | 353 | 15.0 | 18.0 | 0.00 | 0.00 | 0.00 | 74 | 1006.3 |
| 20260506002155 | 69 | 359 | 11.0 | 24.0 | 0.00 | 0.00 | 0.00 | 73 | 1006.4 |
| 20260506001650 | 69 | 358 | 16.0 | 17.0 | 0.00 | 0.00 | 0.00 | 72 | 1006.3 |
| 20260506001148 | 69 | 350 | 11.0 | 14.0 | 0.00 | 0.00 | 0.00 | 73 | 1006.0 |
| 20260506000645 | 70 | 359 | 14.0 | 20.0 | 0.00 | 0.00 | 0.00 | 71 | 1006.1 |
| 20260506000142 | 70 | 357 | 8.0 | 17.0 | 0.00 | 0.00 | 0.00 | 71 | 1006.0 |
| 20260505235640 | 70 | 349 | 6.0 | 17.0 | 0.00 | 0.00 | 0.00 | 70 | 1006.0 |
| 20260505235137 | 71 | 355 | 15.0 | 17.0 | 0.00 | 0.00 | 0.00 | 71 | 1006.4 |
| 20260505234634 | 71 | 358 | 14.0 | 19.0 | 0.00 | 0.00 | 0.00 | 70 | 1006.2 |
| 20260505234131 | 71 | 0 | 8.0 | 18.0 | 0.00 | 0.00 | 0.00 | 71 | 1006.0 |
| 20260505233628 | 71 | 358 | 16.0 | 19.0 | 0.00 | 0.00 | 0.00 | 70 | 1006.1 |
| 20260505233126 | 72 | 355 | 12.0 | 17.0 | 0.00 | 0.00 | 0.00 | 70 | 1005.9 |
| 20260505232623 | 72 | 4 | 12.0 | 21.0 | 0.00 | 0.00 | 0.00 | 69 | 1005.8 |
| 20260505232120 | 73 | 1 | 14.0 | 18.0 | 0.00 | 0.00 | 0.00 | 68 | 1005.7 |
| 20260505231617 | 73 | 343 | 9.0 | 17.0 | 0.00 | 0.00 | 0.00 | 68 | 1005.8 |
| 20260505231116 | 73 | 6 | 6.0 | 14.0 | 0.00 | 0.00 | 0.00 | 69 | 1005.8 |
| 20260505230613 | 73 | 351 | 8.0 | 21.0 | 0.00 | 0.00 | 0.00 | 67 | 1005.8 |
| 20260505230109 | 73 | 346 | 15.0 | 15.0 | 0.00 | 0.00 | 0.00 | 67 | 1005.8 |
| 20260505225606 | 74 | 339 | 7.0 | 18.0 | 0.00 | 0.00 | 0.00 | 67 | 1005.7 |
| 20260505225102 | 74 | 348 | 5.0 | 11.0 | 0.00 | 0.00 | 0.00 | 67 | 1005.7 |
| 20260505224559 | 74 | 343 | 6.0 | 12.0 | 0.00 | 0.00 | 0.00 | 68 | 1005.5 |
| 20260505224057 | 75 | 333 | 11.0 | 22.0 | 0.00 | 0.00 | 0.00 | 66 | 1005.4 |
| 20260505223554 | 75 | 333 | 10.0 | 20.0 | 0.00 | 0.00 | 0.00 | 66 | 1005.4 |
| 20260505223050 | 76 | 327 | 9.0 | 15.0 | 0.00 | 0.00 | 0.00 | 65 | 1005.6 |
| 20260505222546 | 76 | 321 | 6.0 | 16.0 | 0.00 | 0.00 | 0.00 | 64 | 1005.4 |
| 20260505222042 | 76 | 349 | 8.0 | 15.0 | 0.00 | 0.00 | 0.00 | 64 | 1005.2 |
| 20260505221539 | 76 | 324 | 11.0 | 17.0 | 0.00 | 0.00 | 0.00 | 64 | 1005.5 |
| 20260505221036 | 77 | 327 | 7.0 | 15.0 | 0.00 | 0.00 | 0.00 | 64 | 1005.4 |
| 20260505220533 | 77 | 355 | 6.0 | 15.0 | 0.00 | 0.00 | 0.00 | 63 | 1005.1 |
| 20260505220031 | 77 | 352 | 9.0 | 16.0 | 0.00 | 0.00 | 0.00 | 63 | 1005.2 |
| 20260505215529 | 77 | 354 | 7.0 | 14.0 | 0.00 | 0.00 | 0.00 | 64 | 1005.3 |
| 20260505215026 | 77 | 326 | 8.0 | 22.0 | 0.00 | 0.00 | 0.00 | 62 | 1005.1 |
| 20260505214524 | 78 | 343 | 13.0 | 15.0 | 0.00 | 0.00 | 0.00 | 63 | 1005.2 |
| 20260505214021 | 78 | 358 | 10.0 | 16.0 | 0.00 | 0.00 | 0.00 | 63 | 1005.1 |
| 20260505213519 | 79 | 0 | 9.0 | 17.0 | 0.00 | 0.00 | 0.00 | 64 | 1005.0 |
| 20260505213015 | 79 | 321 | 8.0 | 14.0 | 0.00 | 0.00 | 0.00 | 64 | 1005.1 |
| 20260505212511 | 79 | 323 | 8.0 | 20.0 | 0.00 | 0.00 | 0.00 | 63 | 1005.4 |
| 20260505212009 | 80 | 321 | 12.0 | 17.0 | 0.00 | 0.00 | 0.00 | 61 | 1005.1 |
| 20260505211506 | 81 | 353 | 8.0 | 22.0 | 0.00 | 0.00 | 0.00 | 58 | 1005.0 |
| 20260505211002 | 81 | 328 | 13.0 | 19.0 | 0.00 | 0.00 | 0.00 | 55 | 1005.1 |
| 20260505210459 | 82 | 341 | 7.0 | 18.0 | 0.00 | 0.00 | 0.00 | 54 | 1005.2 |
| 20260505205955 | 82 | 340 | 5.0 | 15.0 | 0.00 | 0.00 | 0.00 | 52 | 1005.0 |
| 20260505205454 | 82 | 356 | 7.0 | 17.0 | 0.00 | 0.00 | 0.00 | 53 | 1005.3 |
| 20260505204951 | 82 | 336 | 6.0 | 17.0 | 0.00 | 0.00 | 0.00 | 50 | 1005.3 |
| 20260505204449 | 83 | 9 | 7.0 | 15.0 | 0.00 | 0.00 | 0.00 | 49 | 1005.2 |
| 20260505203946 | 82 | 320 | 13.0 | 18.0 | 0.00 | 0.00 | 0.00 | 48 | 1005.3 |
| 20260505203442 | 82 | 317 | 8.0 | 19.0 | 0.00 | 0.00 | 0.00 | 48 | 1005.4 |
| 20260505202938 | 82 | 317 | 17.0 | 21.0 | 0.00 | 0.00 | 0.00 | 45 | 1005.3 |
| 20260505202435 | 82 | 320 | 16.0 | 22.0 | 0.00 | 0.00 | 0.00 | 44 | 1005.3 |
| 20260505201931 | 82 | 314 | 17.0 | 20.0 | 0.00 | 0.00 | 0.00 | 45 | 1005.3 |
| 20260505201428 | 82 | 333 | 18.0 | 23.0 | 0.00 | 0.00 | 0.00 | 44 | 1005.3 |
| 20260505200926 | 82 | 329 | 9.0 | 24.0 | 0.00 | 0.00 | 0.00 | 47 | 1005.3 |
| 20260505200423 | 84 | 329 | 13.0 | 25.0 | 0.00 | 0.00 | 0.00 | 46 | 1005.1 |
| 20260505195919 | 87 | 283 | 6.0 | 10.0 | 0.00 | 0.00 | 0.00 | 52 | 1004.9 |